Find Ionosfera-M No. 4

NORAD ID: 64877 Int'l Des: 2025-155 Owner: VNIIEMI Country: RU operational
LEOCIRCULARRETROGRADESSO

Current View

Loading 3D Globe...

About Ionosfera-M No. 4

Description loading...

Upcoming Passes

Passes for default location (London). Set your location on the main map for personalized predictions.

Altitude History

Loading altitude history...

Two-Line Element Set

1 64877U 25155B 26150.19076403 .00000065 00000-0 49216-4 0 9991
2 64877 98.6027 112.4675 0000539 94.5101 265.6138 14.21485148 43847
Epoch: May 30, 2026 • Age: 7 hours

Current Status

Altitude 823.6 km
Velocity 7.44 km/s
Sub-Earth Point 28.34°N, 131.27°W
Launch Date Jul 25, 2025
Age 0.8 years
Type other

Technical Details

Classification Payload
Mass 430.00 kg
Dry Mass 430.00 kg
Total Mass 430.00 kg
Length 0.80 m
Diameter 1.20 m
Span 10.00 m
Shape Box+antennae
Manufacturer VNIIEMI
Bus Type Ionosfera-M
Phase Status In Orbit
Owner/State VNIIEMI/RU

Most Searched